FW6250 Weather Reports


time (UTC)temp
F
wind
direction
speed
knots
gust
knots
rain 1hr
in
rain 24hr
in
rain mn
in
humidity
%
barometer
mb
20260504050532 41 0 0.0 1.7 0.00 0.00 0.00 72 1010.3
20260504045530 40 115 0.0 1.7 0.00 0.00 0.00 73 1010.4
20260504045031 40 164 0.0 0.9 0.00 0.00 0.00 73 1010.5
20260504044543 40 0 0.0 1.7 0.00 0.00 0.00 74 1010.5
20260504044029 40 0 0.0 1.7 0.00 0.00 0.00 74 1010.6
20260504043531 39 0 0.0 1.7 0.00 0.00 0.00 74 1010.7
20260504043042 39 0 0.0 1.7 0.00 0.00 0.00 74 1010.6
20260504042531 39 0 0.0 0.9 0.00 0.00 0.00 75 1010.7
20260504042030 39 0 0.0 0.0 0.00 0.00 0.00 74 1010.6
20260504041542 39 0 0.0 0.9 0.00 0.00 0.00 74 1010.9
20260504041028 39 0 0.0 0.9 0.00 0.00 0.00 74 1010.8
20260504040533 38 32 0.0 0.9 0.00 0.00 0.00 75 1010.8
20260504040103 38 0 0.0 0.9 0.00 0.00 0.00 72 1010.8
20260504035533 38 0 0.0 0.9 0.00 0.00 0.00 73 1010.8
20260504035031 38 32 0.0 1.7 0.00 0.00 0.00 75 1010.7
20260504034540 38 32 0.0 1.7 0.00 0.00 0.00 75 1010.8
20260504034032 38 0 0.0 0.9 0.00 0.00 0.00 75 1010.7
20260504033529 38 0 0.0 1.7 0.00 0.00 0.00 75 1010.7
20260504033046 38 0 0.0 1.7 0.00 0.00 0.00 75 1010.8
20260504032534 38 0 0.0 0.9 0.00 0.00 0.00 74 1010.7
20260504032032 37 32 0.0 1.7 0.00 0.00 0.00 74 1010.7
20260504031544 37 0 0.0 1.7 0.00 0.00 0.00 74 1010.9
20260504031028 37 0 0.0 1.7 0.00 0.00 0.00 74 1010.9
20260504030534 37 0 0.0 1.7 0.00 0.00 0.00 73 1010.9
20260504030041 37 0 0.0 0.0 0.00 0.00 0.00 73 1010.9
20260504025532 37 0 0.0 1.7 0.00 0.00 0.00 73 1010.8
20260504025033 37 0 0.0 1.7 0.00 0.00 0.00 72 1010.8
20260504024542 37 0 0.0 1.7 0.00 0.00 0.00 72 1010.8
20260504024033 37 0 0.0 1.7 0.00 0.00 0.00 72 1010.8
20260504023531 37 0 0.0 1.7 0.00 0.00 0.00 72 1010.7
20260504023054 37 32 0.0 1.7 0.00 0.00 0.00 72 1010.7
20260504022531 38 0 0.0 1.7 0.00 0.00 0.00 71 1010.6
20260504022028 38 32 0.0 0.9 0.00 0.00 0.00 72 1010.7
20260504021542 38 0 0.0 0.0 0.00 0.00 0.00 71 1010.7
20260504021031 38 0 0.0 0.0 0.00 0.00 0.00 72 1010.6
20260504020531 38 0 0.0 0.0 0.00 0.00 0.00 71 1010.7
20260504020041 38 0 0.0 0.0 0.00 0.00 0.00 71 1010.8
20260504015528 39 0 0.0 0.0 0.00 0.00 0.00 71 1010.6
20260504015032 39 0 0.0 0.0 0.00 0.00 0.00 70 1010.7
20260504014553 39 0 0.0 0.0 0.00 0.00 0.00 70 1010.7
20260504014031 39 0 0.0 0.0 0.00 0.00 0.00 70 1010.8
20260504013531 39 0 0.0 0.0 0.00 0.00 0.00 70 1010.7
20260504013046 39 0 0.0 0.0 0.00 0.00 0.00 68 1010.7
20260504012534 39 0 0.0 0.0 0.00 0.00 0.00 68 1010.6
20260504012031 39 0 0.0 0.0 0.00 0.00 0.00 67 1010.6
20260504011546 40 0 0.0 0.0 0.00 0.00 0.00 67 1010.6
20260504011028 40 0 0.0 0.0 0.00 0.00 0.00 66 1010.6
20260504010528 40 0 0.0 0.0 0.00 0.00 0.00 65 1010.4
20260504010051 40 0 0.0 0.0 0.00 0.00 0.00 65 1010.3
20260504005530 41 0 0.0 0.0 0.00 0.00 0.00 65 1010.4
20260504005031 41 0 0.0 0.0 0.00 0.00 0.00 63 1010.2
20260504004548 41 0 0.0 0.0 0.00 0.00 0.00 62 1010.3
20260504004028 42 0 0.0 0.0 0.00 0.00 0.00 62 1010.3
20260504003534 42 0 0.0 0.0 0.00 0.00 0.00 61 1010.3
20260504003047 43 0 0.0 0.0 0.00 0.00 0.00 60 1010.3
20260504002531 43 0 0.0 0.0 0.00 0.00 0.00 60 1010.2
20260504002028 43 0 0.0 0.9 0.00 0.00 0.00 59 1010.3
20260504001601 44 0 0.0 1.7 0.00 0.00 0.00 58 1010.2
20260504001032 44 31 0.0 1.7 0.00 0.00 0.00 57 1010.1
20260504000530 44 0 0.0 1.7 0.00 0.00 0.00 57 1010.0
20260504000101 45 350 0.0 2.6 0.00 0.00 0.00 56 1010.0
20260503235529 45 0 0.0 2.6 0.00 0.00 0.00 56 1010.0
20260503235029 45 174 0.9 2.6 0.00 0.00 0.00 55 1010.0
20260503234542 45 0 0.9 2.6 0.00 0.00 0.00 54 1010.0
20260503234029 46 292 0.9 3.5 0.00 0.00 0.00 53 1009.9
20260503233528 46 311 1.7 4.3 0.00 0.00 0.00 53 1009.9
20260503233041 46 301 1.7 4.3 0.00 0.00 0.00 52 1009.9
20260503232530 46 321 0.9 4.3 0.00 0.00 0.00 51 1009.9
20260503232027 46 284 1.7 4.3 0.00 0.00 0.00 50 1009.7
20260503231541 46 349 1.7 4.3 0.00 0.00 0.00 49 1009.8
20260503231032 47 298 0.0 2.6 0.00 0.00 0.00 49 1009.6
20260503230527 47 348 0.9 7.0 0.00 0.00 0.00 48 1009.6
20260503230048 47 271 1.7 7.0 0.00 0.00 0.00 47 1009.4
20260503225530 47 297 1.7 8.7 0.00 0.00 0.00 48 1009.4
20260503225033 47 287 0.9 8.7 0.00 0.00 0.00 46 1009.6
20260503224547 47 340 0.9 2.6 0.00 0.00 0.00 46 1009.5
20260503224028 47 234 0.9 2.6 0.00 0.00 0.00 44 1009.5
20260503223531 48 0 0.9 3.5 0.00 0.00 0.00 44 1009.4
20260503223048 48 306 0.9 4.3 0.00 0.00 0.00 43 1009.3
20260503222528 48 0 0.9 5.2 0.00 0.00 0.00 40 1009.4
20260503222027 49 280 0.9 5.2 0.00 0.00 0.00 42 1009.3
20260503221548 49 171 0.9 8.7 0.00 0.00 0.00 44 1009.5
20260503221028 48 304 1.7 8.7 0.00 0.00 0.00 41 1009.5
20260503220533 48 71 1.7 8.7 0.00 0.00 0.00 41 1009.3
20260503220049 48 96 1.7 7.8 0.00 0.00 0.00 41 1009.3
20260503215532 48 38 0.9 7.8 0.00 0.00 0.00 39 1009.4
20260503215031 49 325 2.6 6.1 0.00 0.00 0.00 40 1009.3
20260503214544 49 240 1.7 6.1 0.00 0.00 0.00 40 1009.4
20260503214030 49 296 1.7 6.1 0.00 0.00 0.00 39 1009.3
20260503213528 49 308 1.7 5.2 0.00 0.00 0.00 37 1009.3
20260503213041 49 250 1.7 4.3 0.00 0.00 0.00 37 1009.4
20260503212527 49 338 0.9 3.5 0.00 0.00 0.00 38 1009.1
20260503212031 49 350 0.9 7.0 0.00 0.00 0.00 36 1009.1
20260503211541 49 310 0.9 7.0 0.00 0.00 0.00 36 1009.2
20260503211029 49 338 0.9 7.0 0.00 0.00 0.00 35 1009.2
20260503210534 49 283 2.6 7.0 0.00 0.00 0.00 34 1009.1
20260503210045 49 307 2.6 7.8 0.00 0.00 0.00 36 1009.2
20260503205530 49 285 2.6 7.8 0.00 0.00 0.00 34 1009.2
20260503205031 49 299 1.7 7.0 0.00 0.00 0.00 34 1009.2
20260503204545 49 90 2.6 7.0 0.00 0.00 0.00 34 1009.1
20260503204034 49 69 2.6 8.7 0.00 0.00 0.00 35 1009.3
20260503203530 49 203 1.7 8.7 0.00 0.00 0.00 37 1009.4
20260503203051 49 301 2.6 8.7 0.00 0.00 0.00 35 1008.7
20260503202529 49 258 2.6 8.7 0.00 0.00 0.00 34 1009.2
20260503202029 50 348 1.7 6.1 0.00 0.00 0.00 35 1009.4
20260503201549 50 224 1.7 6.1 0.00 0.00 0.00 39 1009.5
20260503201030 48 32 0.9 5.2 0.00 0.00 0.00 38 1009.5
20260503200528 47 299 0.9 7.0 0.00 0.00 0.00 43 1009.5
20260503200041 47 219 2.6 7.0 0.00 0.00 0.00 37 1009.5
20260503195530 47 245 1.7 7.8 0.00 0.00 0.00 42 1009.5
20260503195034 47 215 2.6 8.7 0.00 0.00 0.00 38 1009.6
20260503194544 48 311 2.6 8.7 0.00 0.00 0.00 36 1009.8
20260503194030 49 338 2.6 8.7 0.00 0.00 0.00 35 1009.9
20260503193532 49 316 0.9 7.0 0.00 0.00 0.00 39 1010.0
20260503193049 49 299 1.7 9.6 0.00 0.00 0.00 37 1009.9
20260503192528 49 66 3.5 9.6 0.00 0.00 0.00 41 1010.0
20260503192031 49 352 1.7 6.1 0.00 0.00 0.00 39 1009.9
20260503191543 49 348 1.7 7.8 0.00 0.00 0.00 36 1009.8
20260503191031 49 315 1.7 9.6 0.00 0.00 0.00 38 1010.0
20260503190528 48 206 2.6 9.6 0.00 0.00 0.00 40 1010.2
20260503190043 48 5 1.7 7.8 0.00 0.00 0.00 43 1010.3
20260503185528 47 24 2.6 7.8 0.00 0.00 0.00 42 1009.9
20260503185028 47 194 1.7 10.4 0.00 0.00 0.00 40 1010.1
20260503184541 47 271 3.5 10.4 0.00 0.00 0.00 41 1010.1
20260503184030 46 304 3.5 7.8 0.00 0.00 0.00 44 1010.1
20260503183528 45 299 1.7 8.7 0.00 0.00 0.00 47 1010.1
20260503183100 44 227 2.6 8.7 0.00 0.00 0.00 43 1010.2
20260503182532 45 257 2.6 7.0 0.00 0.00 0.00 45 1010.1
20260503182028 45 295 1.7 7.0 0.00 0.00 0.00 43 1010.4
20260503181603 45 295 2.6 7.0 0.00 0.00 0.00 44 1010.2
20260503181031 44 352 1.7 7.0 0.00 0.00 0.00 50 1010.1
20260503180528 44 61 0.9 7.8 0.00 0.00 0.00 48 1010.1
20260503180042 43 67 0.9 10.4 0.00 0.00 0.00 50 1010.0
20260503175528 42 298 1.7 10.4 0.00 0.00 0.00 48 1010.3
20260503175028 42 41 1.7 7.8 0.00 0.00 0.00 50 1010.4
20260503174542 42 262 2.6 7.8 0.00 0.00 0.00 49 1010.4
20260503174028 42 227 1.7 8.7 0.00 0.00 0.00 50 1010.3
20260503173528 42 76 1.7 8.7 0.00 0.00 0.00 49 1010.5
20260503173053 42 321 1.7 8.7 0.00 0.00 0.00 52 1010.6
20260503172531 42 352 2.6 8.7 0.00 0.00 0.00 49 1010.4
20260503172034 42 82 2.6 8.7 0.00 0.00 0.00 50 1010.4
20260503171542 41 307 1.7 7.0 0.00 0.00 0.00 48 1010.5
20260503171028 41 36 0.9 5.2 0.00 0.00 0.00 50 1010.7
20260503170529 41 225 1.7 5.2 0.00 0.00 0.00 50 1010.4
20260503150527 39 350 1.7 7.8 0.00 0.00 0.00 55 1010.8
20260503131033 37 331 0.9 5.2 0.00 0.00 0.00 70 1011.2
20260503130527 36 321 0.9 5.2 0.00 0.00 0.00 71 1011.3
20260503110530 33 96 0.9 1.7 0.00 0.00 0.00 79 1010.1
20260503100103 0 0.0 0.0 0.00 0.00 0.00 1009.9
20260503081542 0 57 0.9 2.6 0.00 0.00 0.00 1009.9
20260503081030 32 296 0.9 2.6 0.00 0.00 0.00 80 1009.9
20260503080532 32 32 0.9 2.6 0.00 0.00 0.00 80 1010.0
20260503072533 31 0 0.0 1.7 0.00 0.00 0.00 80 1010.0
20260503072032 31 0 0.0 2.6 0.00 0.00 0.00 81 1010.1
20260503071539 31 17 0.9 2.6 0.00 0.00 0.00 81 1010.0
20260503071032 31 0 0.0 1.7 0.00 0.00 0.00 81 1010.0
20260503070530 31 78 0.0 1.7 0.00 0.00 0.00 81 1010.0